Regional Weather Roundup
Issued by NWS New Orleans/Baton Rouge, LA

Home | Current Version | Previous Version | Text Only | Print | Product List | Glossary On
Versions: 1 2 3 4 5 6 7 8 9 10 11 12 13 14 15 16 17 18 19 20 21 22 23 24 25 26 27 28 29 30 31 32 33 34 35 36 37 38 39 40 41 42 43 44 45 46 47 48 49 50
606
ASUS44 KLIX 260501
RWRLIX
NEW ORLEANS REGIONAL WEATHER ROUNDUP
NATIONAL WEATHER SERVICE NEW ORLEANS LA
1100 PM CST TUE NOV 25 2014

NOTE: "FAIR" INDICATES FEW OR NO CLOUDS BELOW 12,000 FEET WITH NO
      SIGNIFICANT WEATHER AND/OR OBSTRUCTIONS TO VISIBILITY.
      SKY/WX - SKY CONDITION AND SIGNIFICANT WEATHER.
      TMP - AIR TEMPERATURE.     DP    - DEWPOINT TEMPERATURE.
      RH  - RELATIVE HUMIDITY.   PRES  - PRESSURE.
      HI  - HEAT INDEX.          WCI   - WIND CHILL INDEX.

*  THESE STATIONS ARE NOT NWS OR FAA STATIONS AND ARE NOT UNDER
   NWS QUALITY CONTROL.

LAZ038-040-048-061>063-065>067-069-260600-
SOUTHEAST LOUISIANA

CITY           SKY/WX    TMP DP  RH WIND       PRES   REMARKS
N.O. AUDUBON     N/A     50  36  58 MISG        N/A
N.O. INTL ARPT CLEAR     48  33  56 NW12      30.23S
N.O. LAKEFRONT CLEAR     51  34  52 N22       30.23R
N.O. DOWNTOWN*   N/A     50  30  46 N5        30.23S
SLIDELL        PTCLDY    43  33  68 NW3       30.21S
BATON ROUGE    CLEAR     37  34  89 CALM      30.24F
BOOTHVILLE     CLOUDY    52  34  50 NW16G23   30.19S
BELLE CHASSE   PTCLDY    48  32  53 VRB6      30.21S
BOGALUSA*        N/A     41  32  69 NW3       30.23S
NEW ROADS*     NOT AVBL
GONZALES*      NOT AVBL
HAMMOND*       NOT AVBL
HOUMA*         NOT AVBL
PORT FOURCHON* CLEAR     50  36  57 N12G20    30.25S

$$

MSZ070-080>082-260600-
SOUTHERN MISSISSIPPI

CITY           SKY/WX    TMP DP  RH WIND       PRES   REMARKS
MCCOMB         CLEAR     38  30  73 NW3       30.21F
GULFPORT       CLOUDY    48  31  51 NW9       30.18R
BILOXI         CLOUDY    49  30  48 N12       30.17S
PASCAGOULA     CLOUDY    49  31  49 NW6       30.16F

$$

COASTAL OBSERVATIONS
LAKE AND NEARSHORE STATIONS

STATION/POSITION TIME  TEMP    WIND        PRES    WAVE
                       AIR SEA DIR/SP/G            HT/PER
                 (UTC) (F)     (DEG/KT/KT) (MB)    (FT/S)
PASCAGOULA       0400   51     350/  9/ 14 1020.7
WAVELAND YACHT   0400   49     330/ 10/ 13 1021.4
GRAND ISLE       0400   52 60  340/ 15/ 20 1023.5
SOUTHWEST PASS   0400   56                 1022.3
NEW CANAL        0400   51 54  340/ 10/ 18 1023.6
SHELL BEACH      0400   51 53  330/ 19/ 22 1022.6

OFFSHORE STATIONS

STATION/POSITION TIME  TEMP    WIND        PRES    WAVE
                       AIR SEA DIR/SP/G            HT/PER
                 (UTC) (F)     (DEG/KT/KT) (MB)    (FT/S)
64 S DAUPHIN ISL 0412   58 71  340/ 19/ 23 1020.9    5/ 6

$$




USA.gov is the U.S. government's official web portal to all federal, state and local government web resources and services.